<?xml version="1.0" encoding="UTF-8"?>
<gpx
version="1.1"
creator="Kashmir3D 9.350 - http://www.kashmir3d.com"
xmlns:xsi="http://www.w3.org/2001/XMLSchema-instance"
xmlns="http://www.topografix.com/GPX/1/1"
xmlns:kashmir3d="http://www.kashmir3d.com/namespace/kashmir3d"
xsi:schemaLocation="http://www.topografix.com/GPX/1/1 http://www.topografix.com/GPX/1/1/gpx.xsd
	http://www.kashmir3d.com/namespace/kashmir3d http://www.kashmir3d.com/namespace/kashmir3d.xsd">
<trk>
 <name>TAKAMIKURAIYAMA.KML(高御位山)</name>
 <number>1</number>
 <extensions>
 <kashmir3d:line_color>0000ff</kashmir3d:line_color>
 <kashmir3d:line_size>3</kashmir3d:line_size>
 <kashmir3d:line_style>1</kashmir3d:line_style>
 <kashmir3d:icon>901001</kashmir3d:icon>
 </extensions>
<trkseg>
<trkpt lat="34.813093" lon="134.800107">
 <ele>33.5</ele>
 <time>2020-03-24T14:06:20Z</time>
</trkpt>
<trkpt lat="34.812955" lon="134.800171">
 <ele>33.6</ele>
 <time>2020-03-24T14:06:20Z</time>
</trkpt>
<trkpt lat="34.812887" lon="134.800139">
 <ele>33.9</ele>
 <time>2020-03-24T14:06:20Z</time>
</trkpt>
<trkpt lat="34.812844" lon="134.799882">
 <ele>35.3</ele>
 <time>2020-03-24T14:06:20Z</time>
</trkpt>
<trkpt lat="34.812844" lon="134.799753">
 <ele>36.5</ele>
 <time>2020-03-24T14:06:20Z</time>
</trkpt>
<trkpt lat="34.812861" lon="134.799603">
 <ele>37.8</ele>
 <time>2020-03-24T14:06:20Z</time>
</trkpt>
<trkpt lat="34.812955" lon="134.799495">
 <ele>39.2</ele>
 <time>2020-03-24T14:06:20Z</time>
</trkpt>
<trkpt lat="34.813058" lon="134.799442">
 <ele>40</ele>
 <time>2020-03-24T14:06:21Z</time>
</trkpt>
<trkpt lat="34.813187" lon="134.799377">
 <ele>40.6</ele>
 <time>2020-03-24T14:06:21Z</time>
</trkpt>
<trkpt lat="34.813427" lon="134.799281">
 <ele>41.9</ele>
 <time>2020-03-24T14:06:21Z</time>
</trkpt>
<trkpt lat="34.813385" lon="134.799045">
 <ele>46.6</ele>
 <time>2020-03-24T14:06:21Z</time>
</trkpt>
<trkpt lat="34.813333" lon="134.798884">
 <ele>49.4</ele>
 <time>2020-03-24T14:06:21Z</time>
</trkpt>
<trkpt lat="34.813307" lon="134.798723">
 <ele>53.6</ele>
 <time>2020-03-24T14:06:21Z</time>
</trkpt>
<trkpt lat="34.813290" lon="134.798605">
 <ele>56.4</ele>
 <time>2020-03-24T14:06:21Z</time>
</trkpt>
<trkpt lat="34.813290" lon="134.798444">
 <ele>61.4</ele>
 <time>2020-03-24T14:06:21Z</time>
</trkpt>
<trkpt lat="34.813273" lon="134.798197">
 <ele>67.2</ele>
 <time>2020-03-24T14:06:21Z</time>
</trkpt>
<trkpt lat="34.813290" lon="134.798079">
 <ele>71.2</ele>
 <time>2020-03-24T14:06:21Z</time>
</trkpt>
<trkpt lat="34.813402" lon="134.798133">
 <ele>74.1</ele>
 <time>2020-03-24T14:06:22Z</time>
</trkpt>
<trkpt lat="34.813530" lon="134.798154">
 <ele>80.1</ele>
 <time>2020-03-24T14:06:22Z</time>
</trkpt>
<trkpt lat="34.813591" lon="134.798165">
 <ele>81.7</ele>
 <time>2020-03-24T14:06:22Z</time>
</trkpt>
<trkpt lat="34.813659" lon="134.798165">
 <ele>83.7</ele>
 <time>2020-03-24T14:06:22Z</time>
</trkpt>
<trkpt lat="34.813745" lon="134.798122">
 <ele>86.3</ele>
 <time>2020-03-24T14:06:22Z</time>
</trkpt>
<trkpt lat="34.813762" lon="134.798047">
 <ele>88</ele>
 <time>2020-03-24T14:06:22Z</time>
</trkpt>
<trkpt lat="34.813668" lon="134.798015">
 <ele>88.8</ele>
 <time>2020-03-24T14:06:22Z</time>
</trkpt>
<trkpt lat="34.813616" lon="134.797972">
 <ele>89.2</ele>
 <time>2020-03-24T14:06:22Z</time>
</trkpt>
<trkpt lat="34.813616" lon="134.797886">
 <ele>91.8</ele>
 <time>2020-03-24T14:06:22Z</time>
</trkpt>
<trkpt lat="34.813625" lon="134.797800">
 <ele>94.4</ele>
 <time>2020-03-24T14:06:23Z</time>
</trkpt>
<trkpt lat="34.813719" lon="134.797854">
 <ele>97</ele>
 <time>2020-03-24T14:06:23Z</time>
</trkpt>
<trkpt lat="34.813779" lon="134.797854">
 <ele>98.2</ele>
 <time>2020-03-24T14:06:23Z</time>
</trkpt>
<trkpt lat="34.813900" lon="134.797790">
 <ele>99.4</ele>
 <time>2020-03-24T14:06:23Z</time>
</trkpt>
<trkpt lat="34.814003" lon="134.797639">
 <ele>104.8</ele>
 <time>2020-03-24T14:06:23Z</time>
</trkpt>
<trkpt lat="34.814071" lon="134.797586">
 <ele>104.9</ele>
 <time>2020-03-24T14:06:23Z</time>
</trkpt>
<trkpt lat="34.814011" lon="134.797564">
 <ele>109.5</ele>
 <time>2020-03-24T14:06:23Z</time>
</trkpt>
<trkpt lat="34.813942" lon="134.797554">
 <ele>112.3</ele>
 <time>2020-03-24T14:06:23Z</time>
</trkpt>
<trkpt lat="34.813900" lon="134.797543">
 <ele>113.1</ele>
 <time>2020-03-24T14:06:23Z</time>
</trkpt>
<trkpt lat="34.813857" lon="134.797511">
 <ele>115.7</ele>
 <time>2020-03-24T14:06:23Z</time>
</trkpt>
<trkpt lat="34.813908" lon="134.797436">
 <ele>120.3</ele>
 <time>2020-03-24T14:06:24Z</time>
</trkpt>
<trkpt lat="34.813908" lon="134.797360">
 <ele>122.4</ele>
 <time>2020-03-24T14:06:24Z</time>
</trkpt>
<trkpt lat="34.813874" lon="134.797328">
 <ele>124.4</ele>
 <time>2020-03-24T14:06:24Z</time>
</trkpt>
<trkpt lat="34.813891" lon="134.797221">
 <ele>129.5</ele>
 <time>2020-03-24T14:06:24Z</time>
</trkpt>
<trkpt lat="34.813925" lon="134.797135">
 <ele>133.5</ele>
 <time>2020-03-24T14:06:24Z</time>
</trkpt>
<trkpt lat="34.813960" lon="134.797049">
 <ele>137.1</ele>
 <time>2020-03-24T14:06:24Z</time>
</trkpt>
<trkpt lat="34.814003" lon="134.796942">
 <ele>139.8</ele>
 <time>2020-03-24T14:06:24Z</time>
</trkpt>
<trkpt lat="34.814054" lon="134.796824">
 <ele>144.2</ele>
 <time>2020-03-24T14:06:24Z</time>
</trkpt>
<trkpt lat="34.814123" lon="134.796749">
 <ele>146.8</ele>
 <time>2020-03-24T14:06:24Z</time>
</trkpt>
<trkpt lat="34.814140" lon="134.796663">
 <ele>150.8</ele>
 <time>2020-03-24T14:06:25Z</time>
</trkpt>
<trkpt lat="34.814071" lon="134.796652">
 <ele>151.7</ele>
 <time>2020-03-24T14:06:25Z</time>
</trkpt>
<trkpt lat="34.814131" lon="134.796566">
 <ele>155.4</ele>
 <time>2020-03-24T14:06:25Z</time>
</trkpt>
<trkpt lat="34.814020" lon="134.796534">
 <ele>156.8</ele>
 <time>2020-03-24T14:06:25Z</time>
</trkpt>
<trkpt lat="34.813977" lon="134.796459">
 <ele>155.9</ele>
 <time>2020-03-24T14:06:25Z</time>
</trkpt>
<trkpt lat="34.814097" lon="134.796448">
 <ele>161.6</ele>
 <time>2020-03-24T14:06:25Z</time>
</trkpt>
<trkpt lat="34.814080" lon="134.796341">
 <ele>164.7</ele>
 <time>2020-03-24T14:06:25Z</time>
</trkpt>
<trkpt lat="34.814080" lon="134.796255">
 <ele>168</ele>
 <time>2020-03-24T14:06:25Z</time>
</trkpt>
<trkpt lat="34.814123" lon="134.796191">
 <ele>173.4</ele>
 <time>2020-03-24T14:06:25Z</time>
</trkpt>
<trkpt lat="34.814045" lon="134.796127">
 <ele>171.2</ele>
 <time>2020-03-24T14:06:25Z</time>
</trkpt>
<trkpt lat="34.814045" lon="134.796009">
 <ele>174.9</ele>
 <time>2020-03-24T14:06:26Z</time>
</trkpt>
<trkpt lat="34.814020" lon="134.795944">
 <ele>176.1</ele>
 <time>2020-03-24T14:06:26Z</time>
</trkpt>
<trkpt lat="34.813977" lon="134.795880">
 <ele>175.6</ele>
 <time>2020-03-24T14:06:26Z</time>
</trkpt>
<trkpt lat="34.813925" lon="134.795837">
 <ele>176.1</ele>
 <time>2020-03-24T14:06:26Z</time>
</trkpt>
<trkpt lat="34.814003" lon="134.795794">
 <ele>180.5</ele>
 <time>2020-03-24T14:06:26Z</time>
</trkpt>
<trkpt lat="34.814063" lon="134.795794">
 <ele>184.3</ele>
 <time>2020-03-24T14:06:26Z</time>
</trkpt>
<trkpt lat="34.813977" lon="134.795687">
 <ele>183.6</ele>
 <time>2020-03-24T14:06:26Z</time>
</trkpt>
<trkpt lat="34.813934" lon="134.795676">
 <ele>185</ele>
 <time>2020-03-24T14:06:26Z</time>
</trkpt>
<trkpt lat="34.813977" lon="134.795633">
 <ele>187.7</ele>
 <time>2020-03-24T14:06:26Z</time>
</trkpt>
<trkpt lat="34.814037" lon="134.795601">
 <ele>189.6</ele>
 <time>2020-03-24T14:06:26Z</time>
</trkpt>
<trkpt lat="34.813942" lon="134.795569">
 <ele>189.9</ele>
 <time>2020-03-24T14:06:27Z</time>
</trkpt>
<trkpt lat="34.813917" lon="134.795526">
 <ele>192</ele>
 <time>2020-03-24T14:06:27Z</time>
</trkpt>
<trkpt lat="34.813942" lon="134.795451">
 <ele>196.2</ele>
 <time>2020-03-24T14:06:27Z</time>
</trkpt>
<trkpt lat="34.814028" lon="134.795472">
 <ele>196</ele>
 <time>2020-03-24T14:06:27Z</time>
</trkpt>
<trkpt lat="34.814080" lon="134.795483">
 <ele>197.1</ele>
 <time>2020-03-24T14:06:27Z</time>
</trkpt>
<trkpt lat="34.814037" lon="134.795354">
 <ele>199.4</ele>
 <time>2020-03-24T14:06:27Z</time>
</trkpt>
<trkpt lat="34.813865" lon="134.795247">
 <ele>203.4</ele>
 <time>2020-03-24T14:06:27Z</time>
</trkpt>
<trkpt lat="34.813779" lon="134.795225">
 <ele>204.9</ele>
 <time>2020-03-24T14:06:27Z</time>
</trkpt>
<trkpt lat="34.813728" lon="134.795204">
 <ele>207.8</ele>
 <time>2020-03-24T14:06:27Z</time>
</trkpt>
<trkpt lat="34.813702" lon="134.795161">
 <ele>209</ele>
 <time>2020-03-24T14:06:27Z</time>
</trkpt>
<trkpt lat="34.813633" lon="134.795107">
 <ele>212.5</ele>
 <time>2020-03-24T14:06:28Z</time>
</trkpt>
<trkpt lat="34.813573" lon="134.795086">
 <ele>214.8</ele>
 <time>2020-03-24T14:06:28Z</time>
</trkpt>
<trkpt lat="34.813548" lon="134.795086">
 <ele>215.6</ele>
 <time>2020-03-24T14:06:28Z</time>
</trkpt>
<trkpt lat="34.813513" lon="134.795054">
 <ele>218.5</ele>
 <time>2020-03-24T14:06:28Z</time>
</trkpt>
<trkpt lat="34.813539" lon="134.794946">
 <ele>221</ele>
 <time>2020-03-24T14:06:28Z</time>
</trkpt>
<trkpt lat="34.813488" lon="134.794882">
 <ele>223.5</ele>
 <time>2020-03-24T14:06:28Z</time>
</trkpt>
<trkpt lat="34.813462" lon="134.794904">
 <ele>225.7</ele>
 <time>2020-03-24T14:06:28Z</time>
</trkpt>
<trkpt lat="34.813427" lon="134.794957">
 <ele>225</ele>
 <time>2020-03-24T14:06:28Z</time>
</trkpt>
<trkpt lat="34.813410" lon="134.794893">
 <ele>228.9</ele>
 <time>2020-03-24T14:06:28Z</time>
</trkpt>
<trkpt lat="34.813376" lon="134.794785">
 <ele>233</ele>
 <time>2020-03-24T14:06:29Z</time>
</trkpt>
<trkpt lat="34.813342" lon="134.794732">
 <ele>236.5</ele>
 <time>2020-03-24T14:06:29Z</time>
</trkpt>
<trkpt lat="34.813282" lon="134.794796">
 <ele>236</ele>
 <time>2020-03-24T14:06:29Z</time>
</trkpt>
<trkpt lat="34.813204" lon="134.794828">
 <ele>237.9</ele>
 <time>2020-03-24T14:06:29Z</time>
</trkpt>
<trkpt lat="34.813187" lon="134.794818">
 <ele>239.5</ele>
 <time>2020-03-24T14:06:29Z</time>
</trkpt>
<trkpt lat="34.813204" lon="134.794710">
 <ele>243.8</ele>
 <time>2020-03-24T14:06:29Z</time>
</trkpt>
<trkpt lat="34.813221" lon="134.794603">
 <ele>246.2</ele>
 <time>2020-03-24T14:06:29Z</time>
</trkpt>
<trkpt lat="34.813118" lon="134.794603">
 <ele>251.4</ele>
 <time>2020-03-24T14:06:29Z</time>
</trkpt>
<trkpt lat="34.812973" lon="134.794625">
 <ele>254.9</ele>
 <time>2020-03-24T14:06:29Z</time>
</trkpt>
<trkpt lat="34.812904" lon="134.794625">
 <ele>257.1</ele>
 <time>2020-03-24T14:06:29Z</time>
</trkpt>
<trkpt lat="34.812835" lon="134.794614">
 <ele>259.2</ele>
 <time>2020-03-24T14:06:30Z</time>
</trkpt>
<trkpt lat="34.812767" lon="134.794549">
 <ele>263.4</ele>
 <time>2020-03-24T14:06:30Z</time>
</trkpt>
<trkpt lat="34.812801" lon="134.794485">
 <ele>264.6</ele>
 <time>2020-03-24T14:06:30Z</time>
</trkpt>
<trkpt lat="34.812844" lon="134.794389">
 <ele>268.1</ele>
 <time>2020-03-24T14:06:30Z</time>
</trkpt>
<trkpt lat="34.812852" lon="134.794292">
 <ele>269.8</ele>
 <time>2020-03-24T14:06:30Z</time>
</trkpt>
<trkpt lat="34.812852" lon="134.794228">
 <ele>270.6</ele>
 <time>2020-03-24T14:06:30Z</time>
</trkpt>
<trkpt lat="34.812870" lon="134.794152">
 <ele>271.8</ele>
 <time>2020-03-24T14:06:30Z</time>
</trkpt>
<trkpt lat="34.812921" lon="134.794067">
 <ele>273.2</ele>
 <time>2020-03-24T14:06:30Z</time>
</trkpt>
<trkpt lat="34.812921" lon="134.793959">
 <ele>275.4</ele>
 <time>2020-03-24T14:06:30Z</time>
</trkpt>
<trkpt lat="34.812938" lon="134.793863">
 <ele>276.7</ele>
 <time>2020-03-24T14:06:31Z</time>
</trkpt>
<trkpt lat="34.812964" lon="134.793713">
 <ele>280.3</ele>
 <time>2020-03-24T14:06:31Z</time>
</trkpt>
<trkpt lat="34.813041" lon="134.793616">
 <ele>284.2</ele>
 <time>2020-03-24T14:06:31Z</time>
</trkpt>
<trkpt lat="34.813067" lon="134.793477">
 <ele>288.8</ele>
 <time>2020-03-24T14:06:31Z</time>
</trkpt>
<trkpt lat="34.813101" lon="134.793401">
 <ele>290.8</ele>
 <time>2020-03-24T14:06:31Z</time>
</trkpt>
<trkpt lat="34.813144" lon="134.793283">
 <ele>291.8</ele>
 <time>2020-03-24T14:06:31Z</time>
</trkpt>
<trkpt lat="34.813144" lon="134.793144">
 <ele>295</ele>
 <time>2020-03-24T14:06:31Z</time>
</trkpt>
<trkpt lat="34.813144" lon="134.793037">
 <ele>296.2</ele>
 <time>2020-03-24T14:06:31Z</time>
</trkpt>
<trkpt lat="34.813111" lon="134.792892">
 <ele>299</ele>
 <time>2020-03-24T14:06:31Z</time>
</trkpt>
<trkpt lat="34.813144" lon="134.793037">
 <ele>296.2</ele>
 <time>2020-03-24T14:06:31Z</time>
</trkpt>
<trkpt lat="34.813144" lon="134.793144">
 <ele>295</ele>
 <time>2020-03-24T14:06:32Z</time>
</trkpt>
<trkpt lat="34.813144" lon="134.793283">
 <ele>291.8</ele>
 <time>2020-03-24T14:06:32Z</time>
</trkpt>
<trkpt lat="34.813101" lon="134.793401">
 <ele>290.8</ele>
 <time>2020-03-24T14:06:32Z</time>
</trkpt>
<trkpt lat="34.813067" lon="134.793477">
 <ele>288.8</ele>
 <time>2020-03-24T14:06:32Z</time>
</trkpt>
<trkpt lat="34.813041" lon="134.793616">
 <ele>284.2</ele>
 <time>2020-03-24T14:06:32Z</time>
</trkpt>
<trkpt lat="34.812964" lon="134.793713">
 <ele>280.3</ele>
 <time>2020-03-24T14:06:32Z</time>
</trkpt>
<trkpt lat="34.812938" lon="134.793863">
 <ele>276.7</ele>
 <time>2020-03-24T14:06:32Z</time>
</trkpt>
<trkpt lat="34.812921" lon="134.793959">
 <ele>275.4</ele>
 <time>2020-03-24T14:06:32Z</time>
</trkpt>
<trkpt lat="34.812921" lon="134.794067">
 <ele>273.2</ele>
 <time>2020-03-24T14:06:32Z</time>
</trkpt>
<trkpt lat="34.812870" lon="134.794152">
 <ele>271.8</ele>
 <time>2020-03-24T14:06:32Z</time>
</trkpt>
<trkpt lat="34.812852" lon="134.794228">
 <ele>270.6</ele>
 <time>2020-03-24T14:06:33Z</time>
</trkpt>
<trkpt lat="34.812852" lon="134.794292">
 <ele>269.8</ele>
 <time>2020-03-24T14:06:33Z</time>
</trkpt>
<trkpt lat="34.812844" lon="134.794389">
 <ele>268.1</ele>
 <time>2020-03-24T14:06:33Z</time>
</trkpt>
<trkpt lat="34.812801" lon="134.794485">
 <ele>264.6</ele>
 <time>2020-03-24T14:06:33Z</time>
</trkpt>
<trkpt lat="34.812767" lon="134.794549">
 <ele>263.4</ele>
 <time>2020-03-24T14:06:33Z</time>
</trkpt>
<trkpt lat="34.812835" lon="134.794614">
 <ele>259.2</ele>
 <time>2020-03-24T14:06:33Z</time>
</trkpt>
<trkpt lat="34.812904" lon="134.794625">
 <ele>257.1</ele>
 <time>2020-03-24T14:06:33Z</time>
</trkpt>
<trkpt lat="34.812973" lon="134.794625">
 <ele>254.9</ele>
 <time>2020-03-24T14:06:33Z</time>
</trkpt>
<trkpt lat="34.813118" lon="134.794603">
 <ele>251.4</ele>
 <time>2020-03-24T14:06:33Z</time>
</trkpt>
<trkpt lat="34.813221" lon="134.794603">
 <ele>246.2</ele>
 <time>2020-03-24T14:06:33Z</time>
</trkpt>
<trkpt lat="34.813204" lon="134.794710">
 <ele>243.8</ele>
 <time>2020-03-24T14:06:34Z</time>
</trkpt>
<trkpt lat="34.813187" lon="134.794818">
 <ele>239.5</ele>
 <time>2020-03-24T14:06:34Z</time>
</trkpt>
<trkpt lat="34.813204" lon="134.794828">
 <ele>237.9</ele>
 <time>2020-03-24T14:06:34Z</time>
</trkpt>
<trkpt lat="34.813282" lon="134.794796">
 <ele>236</ele>
 <time>2020-03-24T14:06:34Z</time>
</trkpt>
<trkpt lat="34.813342" lon="134.794732">
 <ele>236.5</ele>
 <time>2020-03-24T14:06:34Z</time>
</trkpt>
<trkpt lat="34.813376" lon="134.794785">
 <ele>233</ele>
 <time>2020-03-24T14:06:34Z</time>
</trkpt>
<trkpt lat="34.813410" lon="134.794893">
 <ele>228.9</ele>
 <time>2020-03-24T14:06:34Z</time>
</trkpt>
<trkpt lat="34.813427" lon="134.794957">
 <ele>225</ele>
 <time>2020-03-24T14:06:34Z</time>
</trkpt>
<trkpt lat="34.813462" lon="134.794904">
 <ele>225.7</ele>
 <time>2020-03-24T14:06:34Z</time>
</trkpt>
<trkpt lat="34.813488" lon="134.794882">
 <ele>223.5</ele>
 <time>2020-03-24T14:06:35Z</time>
</trkpt>
<trkpt lat="34.813539" lon="134.794946">
 <ele>221</ele>
 <time>2020-03-24T14:06:35Z</time>
</trkpt>
<trkpt lat="34.813513" lon="134.795054">
 <ele>218.5</ele>
 <time>2020-03-24T14:06:35Z</time>
</trkpt>
<trkpt lat="34.813548" lon="134.795086">
 <ele>215.6</ele>
 <time>2020-03-24T14:06:35Z</time>
</trkpt>
<trkpt lat="34.813573" lon="134.795086">
 <ele>214.8</ele>
 <time>2020-03-24T14:06:35Z</time>
</trkpt>
<trkpt lat="34.813633" lon="134.795107">
 <ele>212.5</ele>
 <time>2020-03-24T14:06:35Z</time>
</trkpt>
<trkpt lat="34.813702" lon="134.795161">
 <ele>209</ele>
 <time>2020-03-24T14:06:35Z</time>
</trkpt>
<trkpt lat="34.813728" lon="134.795204">
 <ele>207.8</ele>
 <time>2020-03-24T14:06:35Z</time>
</trkpt>
<trkpt lat="34.813779" lon="134.795225">
 <ele>204.9</ele>
 <time>2020-03-24T14:06:35Z</time>
</trkpt>
<trkpt lat="34.813865" lon="134.795247">
 <ele>203.4</ele>
 <time>2020-03-24T14:06:35Z</time>
</trkpt>
<trkpt lat="34.814037" lon="134.795354">
 <ele>199.4</ele>
 <time>2020-03-24T14:06:36Z</time>
</trkpt>
<trkpt lat="34.814080" lon="134.795483">
 <ele>197.1</ele>
 <time>2020-03-24T14:06:36Z</time>
</trkpt>
<trkpt lat="34.814028" lon="134.795472">
 <ele>196</ele>
 <time>2020-03-24T14:06:36Z</time>
</trkpt>
<trkpt lat="34.813942" lon="134.795451">
 <ele>196.2</ele>
 <time>2020-03-24T14:06:36Z</time>
</trkpt>
<trkpt lat="34.813917" lon="134.795526">
 <ele>192</ele>
 <time>2020-03-24T14:06:36Z</time>
</trkpt>
<trkpt lat="34.813942" lon="134.795569">
 <ele>189.9</ele>
 <time>2020-03-24T14:06:36Z</time>
</trkpt>
<trkpt lat="34.814037" lon="134.795601">
 <ele>189.6</ele>
 <time>2020-03-24T14:06:36Z</time>
</trkpt>
<trkpt lat="34.813977" lon="134.795633">
 <ele>187.7</ele>
 <time>2020-03-24T14:06:36Z</time>
</trkpt>
<trkpt lat="34.813934" lon="134.795676">
 <ele>185</ele>
 <time>2020-03-24T14:06:36Z</time>
</trkpt>
<trkpt lat="34.813977" lon="134.795687">
 <ele>183.6</ele>
 <time>2020-03-24T14:06:36Z</time>
</trkpt>
<trkpt lat="34.814063" lon="134.795794">
 <ele>184.3</ele>
 <time>2020-03-24T14:06:37Z</time>
</trkpt>
<trkpt lat="34.814003" lon="134.795794">
 <ele>180.5</ele>
 <time>2020-03-24T14:06:37Z</time>
</trkpt>
<trkpt lat="34.813925" lon="134.795837">
 <ele>176.1</ele>
 <time>2020-03-24T14:06:37Z</time>
</trkpt>
<trkpt lat="34.813977" lon="134.795880">
 <ele>175.6</ele>
 <time>2020-03-24T14:06:37Z</time>
</trkpt>
<trkpt lat="34.814020" lon="134.795944">
 <ele>176.1</ele>
 <time>2020-03-24T14:06:37Z</time>
</trkpt>
<trkpt lat="34.814045" lon="134.796009">
 <ele>174.9</ele>
 <time>2020-03-24T14:06:37Z</time>
</trkpt>
<trkpt lat="34.814045" lon="134.796127">
 <ele>171.2</ele>
 <time>2020-03-24T14:06:37Z</time>
</trkpt>
<trkpt lat="34.814123" lon="134.796191">
 <ele>173.4</ele>
 <time>2020-03-24T14:06:37Z</time>
</trkpt>
<trkpt lat="34.814080" lon="134.796255">
 <ele>168</ele>
 <time>2020-03-24T14:06:37Z</time>
</trkpt>
<trkpt lat="34.814080" lon="134.796341">
 <ele>164.7</ele>
 <time>2020-03-24T14:06:38Z</time>
</trkpt>
<trkpt lat="34.814097" lon="134.796448">
 <ele>161.6</ele>
 <time>2020-03-24T14:06:38Z</time>
</trkpt>
<trkpt lat="34.813977" lon="134.796459">
 <ele>155.9</ele>
 <time>2020-03-24T14:06:38Z</time>
</trkpt>
<trkpt lat="34.814020" lon="134.796534">
 <ele>156.8</ele>
 <time>2020-03-24T14:06:38Z</time>
</trkpt>
<trkpt lat="34.814131" lon="134.796566">
 <ele>155.4</ele>
 <time>2020-03-24T14:06:38Z</time>
</trkpt>
<trkpt lat="34.814071" lon="134.796652">
 <ele>151.7</ele>
 <time>2020-03-24T14:06:38Z</time>
</trkpt>
<trkpt lat="34.814140" lon="134.796663">
 <ele>150.8</ele>
 <time>2020-03-24T14:06:38Z</time>
</trkpt>
<trkpt lat="34.814123" lon="134.796749">
 <ele>146.8</ele>
 <time>2020-03-24T14:06:38Z</time>
</trkpt>
<trkpt lat="34.814054" lon="134.796824">
 <ele>144.2</ele>
 <time>2020-03-24T14:06:38Z</time>
</trkpt>
<trkpt lat="34.814003" lon="134.796942">
 <ele>139.8</ele>
 <time>2020-03-24T14:06:38Z</time>
</trkpt>
<trkpt lat="34.813960" lon="134.797049">
 <ele>137.1</ele>
 <time>2020-03-24T14:06:39Z</time>
</trkpt>
<trkpt lat="34.813925" lon="134.797135">
 <ele>133.5</ele>
 <time>2020-03-24T14:06:39Z</time>
</trkpt>
<trkpt lat="34.813891" lon="134.797221">
 <ele>129.5</ele>
 <time>2020-03-24T14:06:39Z</time>
</trkpt>
<trkpt lat="34.813874" lon="134.797328">
 <ele>124.4</ele>
 <time>2020-03-24T14:06:39Z</time>
</trkpt>
<trkpt lat="34.813908" lon="134.797360">
 <ele>122.4</ele>
 <time>2020-03-24T14:06:39Z</time>
</trkpt>
<trkpt lat="34.813908" lon="134.797436">
 <ele>120.3</ele>
 <time>2020-03-24T14:06:39Z</time>
</trkpt>
<trkpt lat="34.813857" lon="134.797511">
 <ele>115.7</ele>
 <time>2020-03-24T14:06:39Z</time>
</trkpt>
<trkpt lat="34.813900" lon="134.797543">
 <ele>113.1</ele>
 <time>2020-03-24T14:06:39Z</time>
</trkpt>
<trkpt lat="34.813942" lon="134.797554">
 <ele>112.3</ele>
 <time>2020-03-24T14:06:39Z</time>
</trkpt>
<trkpt lat="34.814011" lon="134.797564">
 <ele>109.5</ele>
 <time>2020-03-24T14:06:39Z</time>
</trkpt>
<trkpt lat="34.814071" lon="134.797586">
 <ele>104.9</ele>
 <time>2020-03-24T14:06:40Z</time>
</trkpt>
<trkpt lat="34.814003" lon="134.797639">
 <ele>104.8</ele>
 <time>2020-03-24T14:06:40Z</time>
</trkpt>
<trkpt lat="34.813900" lon="134.797790">
 <ele>99.4</ele>
 <time>2020-03-24T14:06:40Z</time>
</trkpt>
<trkpt lat="34.813779" lon="134.797854">
 <ele>98.2</ele>
 <time>2020-03-24T14:06:40Z</time>
</trkpt>
<trkpt lat="34.813719" lon="134.797854">
 <ele>97</ele>
 <time>2020-03-24T14:06:40Z</time>
</trkpt>
<trkpt lat="34.813625" lon="134.797800">
 <ele>94.4</ele>
 <time>2020-03-24T14:06:40Z</time>
</trkpt>
<trkpt lat="34.813616" lon="134.797886">
 <ele>91.8</ele>
 <time>2020-03-24T14:06:40Z</time>
</trkpt>
<trkpt lat="34.813616" lon="134.797972">
 <ele>89.2</ele>
 <time>2020-03-24T14:06:40Z</time>
</trkpt>
<trkpt lat="34.813668" lon="134.798015">
 <ele>88.8</ele>
 <time>2020-03-24T14:06:40Z</time>
</trkpt>
<trkpt lat="34.813762" lon="134.798047">
 <ele>88</ele>
 <time>2020-03-24T14:06:40Z</time>
</trkpt>
<trkpt lat="34.813745" lon="134.798122">
 <ele>86.3</ele>
 <time>2020-03-24T14:06:41Z</time>
</trkpt>
<trkpt lat="34.813659" lon="134.798165">
 <ele>83.7</ele>
 <time>2020-03-24T14:06:41Z</time>
</trkpt>
<trkpt lat="34.813591" lon="134.798165">
 <ele>81.7</ele>
 <time>2020-03-24T14:06:41Z</time>
</trkpt>
<trkpt lat="34.813530" lon="134.798154">
 <ele>80.1</ele>
 <time>2020-03-24T14:06:41Z</time>
</trkpt>
<trkpt lat="34.813402" lon="134.798133">
 <ele>74.1</ele>
 <time>2020-03-24T14:06:41Z</time>
</trkpt>
<trkpt lat="34.813290" lon="134.798079">
 <ele>71.2</ele>
 <time>2020-03-24T14:06:41Z</time>
</trkpt>
<trkpt lat="34.813273" lon="134.798197">
 <ele>67.2</ele>
 <time>2020-03-24T14:06:41Z</time>
</trkpt>
<trkpt lat="34.813290" lon="134.798444">
 <ele>61.4</ele>
 <time>2020-03-24T14:06:41Z</time>
</trkpt>
<trkpt lat="34.813290" lon="134.798605">
 <ele>56.4</ele>
 <time>2020-03-24T14:06:41Z</time>
</trkpt>
<trkpt lat="34.813307" lon="134.798723">
 <ele>53.6</ele>
 <time>2020-03-24T14:06:42Z</time>
</trkpt>
<trkpt lat="34.813333" lon="134.798884">
 <ele>49.4</ele>
 <time>2020-03-24T14:06:42Z</time>
</trkpt>
<trkpt lat="34.813385" lon="134.799045">
 <ele>46.6</ele>
 <time>2020-03-24T14:06:42Z</time>
</trkpt>
<trkpt lat="34.813427" lon="134.799281">
 <ele>41.9</ele>
 <time>2020-03-24T14:06:42Z</time>
</trkpt>
<trkpt lat="34.813187" lon="134.799377">
 <ele>40.6</ele>
 <time>2020-03-24T14:06:42Z</time>
</trkpt>
<trkpt lat="34.813058" lon="134.799442">
 <ele>40</ele>
 <time>2020-03-24T14:06:42Z</time>
</trkpt>
<trkpt lat="34.812955" lon="134.799495">
 <ele>39.2</ele>
 <time>2020-03-24T14:06:42Z</time>
</trkpt>
<trkpt lat="34.812861" lon="134.799603">
 <ele>37.8</ele>
 <time>2020-03-24T14:06:42Z</time>
</trkpt>
<trkpt lat="34.812844" lon="134.799753">
 <ele>36.5</ele>
 <time>2020-03-24T14:06:42Z</time>
</trkpt>
<trkpt lat="34.812844" lon="134.799882">
 <ele>35.3</ele>
 <time>2020-03-24T14:06:42Z</time>
</trkpt>
<trkpt lat="34.812887" lon="134.800139">
 <ele>33.9</ele>
 <time>2020-03-24T14:06:43Z</time>
</trkpt>
<trkpt lat="34.812955" lon="134.800171">
 <ele>33.6</ele>
 <time>2020-03-24T14:06:43Z</time>
</trkpt>
<trkpt lat="34.813093" lon="134.800107">
 <ele>33.5</ele>
 <time>2020-03-24T14:06:43Z</time>
</trkpt>
</trkseg>
</trk>
</gpx>

